Year,Month,Day,Hour,Minute,Value (Times are PST for windgust in km/hr)
2015,01,20,00,35,3.20
2015,01,20,00,36,3.20
2015,01,20,00,45,1.60
2015,01,20,00,52,1.60
2015,01,20,00,57,1.60
2015,01,20,00,58,1.60
2015,01,20,01,32,1.60
2015,01,20,02,02,3.20
2015,01,20,02,03,3.20
2015,01,20,02,04,1.60
2015,01,20,02,05,1.60
2015,01,20,02,06,3.20
2015,01,20,02,07,1.60
2015,01,20,02,08,4.80
2015,01,20,02,09,4.80
2015,01,20,02,10,6.40
2015,01,20,02,11,4.80
2015,01,20,02,12,6.40
2015,01,20,02,13,4.80
2015,01,20,02,14,3.20
2015,01,20,02,15,3.20
2015,01,20,02,16,1.60
2015,01,20,02,19,1.60
2015,01,20,02,21,1.60
2015,01,20,02,31,1.60
2015,01,20,02,32,3.20
2015,01,20,02,34,1.60
2015,01,20,03,30,1.60
2015,01,20,03,31,1.60
2015,01,20,03,32,1.60
2015,01,20,03,33,1.60
2015,01,20,03,34,1.60
2015,01,20,03,35,3.20
2015,01,20,03,36,1.60
2015,01,20,03,37,4.80
2015,01,20,03,38,6.40
2015,01,20,03,39,4.80
2015,01,20,03,40,4.80
2015,01,20,03,41,1.60
2015,01,20,03,42,3.20
2015,01,20,03,43,8.10
2015,01,20,03,44,6.40
2015,01,20,03,45,9.60
2015,01,20,03,46,8.10
2015,01,20,03,47,6.40
2015,01,20,03,48,9.60
2015,01,20,03,49,9.60
2015,01,20,03,50,8.10
2015,01,20,03,51,9.60
2015,01,20,03,52,11.30
2015,01,20,03,53,9.60
2015,01,20,03,54,9.60
2015,01,20,03,55,9.60
2015,01,20,03,56,11.30
2015,01,20,03,57,8.10
2015,01,20,03,58,11.30
2015,01,20,03,59,11.30
2015,01,20,04,00,11.30
2015,01,20,04,01,11.30
2015,01,20,04,02,11.30
2015,01,20,04,03,12.90
2015,01,20,04,04,12.90
2015,01,20,04,05,16.10
2015,01,20,04,06,11.30
2015,01,20,04,07,14.50
2015,01,20,04,08,14.50
2015,01,20,04,09,14.50
2015,01,20,04,10,14.50
2015,01,20,04,11,14.50
2015,01,20,04,12,16.10
2015,01,20,04,13,11.30
2015,01,20,04,14,11.30
2015,01,20,04,15,12.90
2015,01,20,04,16,14.50
2015,01,20,04,17,16.10
2015,01,20,04,18,14.50
2015,01,20,04,19,14.50
2015,01,20,04,20,11.30
2015,01,20,04,21,11.30
2015,01,20,04,22,9.60
2015,01,20,04,23,8.10
2015,01,20,04,24,9.60
2015,01,20,04,25,9.60
2015,01,20,04,26,11.30
2015,01,20,04,27,9.60
2015,01,20,04,28,11.30
2015,01,20,04,29,12.90
2015,01,20,04,30,8.10
2015,01,20,04,31,9.60
2015,01,20,04,32,11.30
2015,01,20,04,33,12.90
2015,01,20,04,34,12.90
2015,01,20,04,35,9.60
2015,01,20,04,36,11.30
2015,01,20,04,37,12.90
2015,01,20,04,38,12.90
2015,01,20,04,39,9.60
2015,01,20,04,40,9.60
2015,01,20,04,41,14.50
2015,01,20,04,42,9.60
2015,01,20,04,43,9.60
2015,01,20,04,44,14.50
2015,01,20,04,45,8.10
2015,01,20,04,46,12.90
2015,01,20,04,47,8.10
2015,01,20,04,48,9.60
2015,01,20,04,49,8.10
2015,01,20,04,50,6.40
2015,01,20,04,51,9.60
2015,01,20,04,52,8.10
2015,01,20,04,53,11.30
2015,01,20,04,54,8.10
2015,01,20,04,55,9.60
2015,01,20,04,56,8.10
2015,01,20,04,57,6.40
2015,01,20,04,58,8.10
2015,01,20,04,59,8.10
2015,01,20,05,00,8.10
2015,01,20,05,01,6.40
2015,01,20,05,02,9.60
2015,01,20,05,03,9.60
2015,01,20,05,04,6.40
2015,01,20,05,05,4.80
2015,01,20,05,06,8.10
2015,01,20,05,07,8.10
2015,01,20,05,08,6.40
2015,01,20,05,09,6.40
2015,01,20,05,10,6.40
2015,01,20,05,11,4.80
2015,01,20,05,12,4.80
2015,01,20,05,13,3.20
2015,01,20,05,14,1.60
2015,01,20,05,16,4.80
2015,01,20,05,17,4.80
2015,01,20,05,18,4.80
2015,01,20,05,19,6.40
2015,01,20,05,20,4.80
2015,01,20,05,21,4.80
2015,01,20,05,22,4.80
2015,01,20,05,23,4.80
2015,01,20,05,24,4.80
2015,01,20,05,25,4.80
2015,01,20,05,26,6.40
2015,01,20,05,27,4.80
2015,01,20,05,28,6.40
2015,01,20,05,29,4.80
2015,01,20,05,30,3.20
2015,01,20,05,31,6.40
2015,01,20,05,32,6.40
2015,01,20,05,33,4.80
2015,01,20,05,34,4.80
2015,01,20,05,35,4.80
2015,01,20,05,36,6.40
2015,01,20,05,37,6.40
2015,01,20,05,38,6.40
2015,01,20,05,39,8.10
2015,01,20,05,40,9.60
2015,01,20,05,41,6.40
2015,01,20,05,42,8.10
2015,01,20,05,43,6.40
2015,01,20,05,44,6.40
2015,01,20,05,45,4.80
2015,01,20,05,46,3.20
2015,01,20,05,47,4.80
2015,01,20,05,48,3.20
2015,01,20,05,49,6.40
2015,01,20,05,50,8.10
2015,01,20,05,51,8.10
2015,01,20,05,52,8.10
2015,01,20,05,53,8.10
2015,01,20,05,54,9.60
2015,01,20,05,55,8.10
2015,01,20,05,56,6.40
2015,01,20,05,57,8.10
2015,01,20,05,58,8.10
2015,01,20,05,59,8.10
2015,01,20,06,00,8.10
2015,01,20,06,01,8.10
2015,01,20,06,02,6.40
2015,01,20,06,03,3.20
2015,01,20,06,04,6.40
2015,01,20,06,05,6.40
2015,01,20,06,06,4.80
2015,01,20,06,07,4.80
2015,01,20,06,08,4.80
2015,01,20,06,09,6.40
2015,01,20,06,10,6.40
2015,01,20,06,11,6.40
2015,01,20,06,12,6.40
2015,01,20,06,13,8.10
2015,01,20,06,14,6.40
2015,01,20,06,15,6.40
2015,01,20,06,16,4.80
2015,01,20,06,17,8.10
2015,01,20,06,18,9.60
2015,01,20,06,19,6.40
2015,01,20,06,20,6.40
2015,01,20,06,21,8.10
2015,01,20,06,22,8.10
2015,01,20,06,23,8.10
2015,01,20,06,24,8.10
2015,01,20,06,25,6.40
2015,01,20,06,26,6.40
2015,01,20,06,27,6.40
2015,01,20,06,28,6.40
2015,01,20,06,29,8.10
2015,01,20,06,30,8.10
2015,01,20,06,31,8.10
2015,01,20,06,32,8.10
2015,01,20,06,33,8.10
2015,01,20,06,34,8.10
2015,01,20,06,35,6.40
2015,01,20,06,36,6.40
2015,01,20,06,37,8.10
2015,01,20,06,38,11.30
2015,01,20,06,39,9.60
2015,01,20,06,40,9.60
2015,01,20,06,41,8.10
2015,01,20,06,42,6.40
2015,01,20,06,43,8.10
2015,01,20,06,44,8.10
2015,01,20,06,45,8.10
2015,01,20,06,46,6.40
2015,01,20,06,47,8.10
2015,01,20,06,48,9.60
2015,01,20,06,49,9.60
2015,01,20,06,50,8.10
2015,01,20,06,51,11.30
2015,01,20,06,52,9.60
2015,01,20,06,53,8.10
2015,01,20,06,54,9.60
2015,01,20,06,55,9.60
2015,01,20,06,56,9.60
2015,01,20,06,57,11.30
2015,01,20,06,58,11.30
2015,01,20,06,59,14.50
2015,01,20,07,00,11.30
2015,01,20,07,01,9.60
2015,01,20,07,02,8.10
2015,01,20,07,03,9.60
2015,01,20,07,04,8.10
2015,01,20,07,05,6.40
2015,01,20,07,06,8.10
2015,01,20,07,07,6.40
2015,01,20,07,08,6.40
2015,01,20,07,09,8.10
2015,01,20,07,10,9.60
2015,01,20,07,11,9.60
2015,01,20,07,12,9.60
2015,01,20,07,13,9.60
2015,01,20,07,14,8.10
2015,01,20,07,15,8.10
2015,01,20,07,16,9.60
2015,01,20,07,17,9.60
2015,01,20,07,18,8.10
2015,01,20,07,19,8.10
2015,01,20,07,20,8.10
2015,01,20,07,21,11.30
2015,01,20,07,22,8.10
2015,01,20,07,23,8.10
2015,01,20,07,24,8.10
2015,01,20,07,25,8.10
2015,01,20,07,26,8.10
2015,01,20,07,27,9.60
2015,01,20,07,28,9.60
2015,01,20,07,29,9.60
2015,01,20,07,30,9.60
2015,01,20,07,31,9.60
2015,01,20,07,32,9.60
2015,01,20,07,33,9.60
2015,01,20,07,34,9.60
2015,01,20,07,35,9.60
2015,01,20,07,36,9.60
2015,01,20,07,37,9.60
2015,01,20,07,38,9.60
2015,01,20,07,39,11.30
2015,01,20,07,40,11.30
2015,01,20,07,41,9.60
2015,01,20,07,42,9.60
2015,01,20,07,43,9.60
2015,01,20,07,44,9.60
2015,01,20,07,45,9.60
2015,01,20,07,46,8.10
2015,01,20,07,47,8.10
2015,01,20,07,48,8.10
2015,01,20,07,49,8.10
2015,01,20,07,50,9.60
2015,01,20,07,51,9.60
2015,01,20,07,52,9.60
2015,01,20,07,53,9.60
2015,01,20,07,54,9.60
2015,01,20,07,55,11.30
2015,01,20,07,56,11.30
2015,01,20,07,57,9.60
2015,01,20,07,58,11.30
2015,01,20,07,59,9.60
2015,01,20,08,00,9.60
2015,01,20,08,01,9.60
2015,01,20,08,02,11.30
2015,01,20,08,03,9.60
2015,01,20,08,04,11.30
2015,01,20,08,05,9.60
2015,01,20,08,06,11.30
2015,01,20,08,07,9.60
2015,01,20,08,08,9.60
2015,01,20,08,09,9.60
2015,01,20,08,10,9.60
2015,01,20,08,11,9.60
2015,01,20,08,12,9.60
2015,01,20,08,13,9.60
2015,01,20,08,14,11.30
2015,01,20,08,15,8.10
2015,01,20,08,16,8.10
2015,01,20,08,17,9.60
2015,01,20,08,18,8.10
2015,01,20,08,19,9.60
2015,01,20,08,20,8.10
2015,01,20,08,21,8.10
2015,01,20,08,22,6.40
2015,01,20,08,23,8.10
2015,01,20,08,24,8.10
2015,01,20,08,25,11.30
2015,01,20,08,26,11.30
2015,01,20,08,27,16.10
2015,01,20,08,28,11.30
2015,01,20,08,29,9.60
2015,01,20,08,30,11.30
2015,01,20,08,31,11.30
2015,01,20,08,32,9.60
2015,01,20,08,33,9.60
2015,01,20,08,34,9.60
2015,01,20,08,35,9.60
2015,01,20,08,36,9.60
2015,01,20,08,37,11.30
2015,01,20,08,38,9.60
2015,01,20,08,39,9.60
2015,01,20,08,40,9.60
2015,01,20,08,41,9.60
2015,01,20,08,42,9.60
2015,01,20,08,43,8.10
2015,01,20,08,44,8.10
2015,01,20,08,45,8.10
2015,01,20,08,46,11.30
2015,01,20,08,47,8.10
2015,01,20,08,48,9.60
2015,01,20,08,49,6.40
2015,01,20,08,50,9.60
2015,01,20,08,51,11.30
2015,01,20,08,52,11.30
2015,01,20,08,53,9.60
2015,01,20,08,54,9.60
2015,01,20,08,55,9.60
2015,01,20,08,56,11.30
2015,01,20,08,57,8.10
2015,01,20,08,58,8.10
2015,01,20,08,59,8.10
2015,01,20,09,00,9.60
2015,01,20,09,01,11.30
2015,01,20,09,02,9.60
2015,01,20,09,03,11.30
2015,01,20,09,04,8.10
2015,01,20,09,05,14.50
2015,01,20,09,06,14.50
2015,01,20,09,07,14.50
2015,01,20,09,08,19.30
2015,01,20,09,09,11.30
2015,01,20,09,10,11.30
2015,01,20,09,11,11.30
2015,01,20,09,12,11.30
2015,01,20,09,13,12.90
2015,01,20,09,14,9.60
2015,01,20,09,15,12.90
2015,01,20,09,16,14.50
2015,01,20,09,17,12.90
2015,01,20,09,18,9.60
2015,01,20,09,19,11.30
2015,01,20,09,20,11.30
2015,01,20,09,21,8.10
2015,01,20,09,22,11.30
2015,01,20,09,23,8.10
2015,01,20,09,24,8.10
2015,01,20,09,25,8.10
2015,01,20,09,26,8.10
2015,01,20,09,27,8.10
2015,01,20,09,28,9.60
2015,01,20,09,29,9.60
2015,01,20,09,30,9.60
2015,01,20,09,31,8.10
2015,01,20,09,32,8.10
2015,01,20,09,33,8.10
2015,01,20,09,34,9.60
2015,01,20,09,35,8.10
2015,01,20,09,36,8.10
2015,01,20,09,37,8.10
2015,01,20,09,38,8.10
2015,01,20,09,39,8.10
2015,01,20,09,40,6.40
2015,01,20,09,41,8.10
2015,01,20,09,42,8.10
2015,01,20,09,43,9.60
2015,01,20,09,44,9.60
2015,01,20,09,45,9.60
2015,01,20,09,46,8.10
2015,01,20,09,47,8.10
2015,01,20,09,48,8.10
2015,01,20,09,49,9.60
2015,01,20,09,50,6.40
2015,01,20,09,51,8.10
2015,01,20,09,52,8.10
2015,01,20,09,53,8.10
2015,01,20,09,54,6.40
2015,01,20,09,55,4.80
2015,01,20,09,56,4.80
2015,01,20,09,57,8.10
2015,01,20,09,58,11.30
2015,01,20,09,59,9.60
2015,01,20,10,00,8.10
2015,01,20,10,01,6.40
2015,01,20,10,02,8.10
2015,01,20,10,03,9.60
2015,01,20,10,04,9.60
2015,01,20,10,05,6.40
2015,01,20,10,06,11.30
2015,01,20,10,07,11.30
2015,01,20,10,08,8.10
2015,01,20,10,09,6.40
2015,01,20,10,10,6.40
2015,01,20,10,11,8.10
2015,01,20,10,12,11.30
2015,01,20,10,13,9.60
2015,01,20,10,14,6.40
2015,01,20,10,15,6.40
2015,01,20,10,16,8.10
2015,01,20,10,17,6.40
2015,01,20,10,18,8.10
2015,01,20,10,19,8.10
2015,01,20,10,20,12.90
2015,01,20,10,21,11.30
2015,01,20,10,22,8.10
2015,01,20,10,23,8.10
2015,01,20,10,24,12.90
2015,01,20,10,25,9.60
2015,01,20,10,26,9.60
2015,01,20,10,27,9.60
2015,01,20,10,28,11.30
2015,01,20,10,29,9.60
2015,01,20,10,30,11.30
2015,01,20,10,31,9.60
2015,01,20,10,32,8.10
2015,01,20,10,33,8.10
2015,01,20,10,34,9.60
2015,01,20,10,35,12.90
2015,01,20,10,36,11.30
2015,01,20,10,37,8.10
2015,01,20,10,38,11.30
2015,01,20,10,39,16.10
2015,01,20,10,40,11.30
2015,01,20,10,41,14.50
2015,01,20,10,42,11.30
2015,01,20,10,43,8.10
2015,01,20,10,44,8.10
2015,01,20,10,45,8.10
2015,01,20,10,46,9.60
2015,01,20,10,47,12.90
2015,01,20,10,48,14.50
2015,01,20,10,49,12.90
2015,01,20,10,50,9.60
2015,01,20,10,51,8.10
2015,01,20,10,52,6.40
2015,01,20,10,53,6.40
2015,01,20,10,54,6.40
2015,01,20,10,55,8.10
2015,01,20,10,56,8.10
2015,01,20,10,57,9.60
2015,01,20,10,58,16.10
2015,01,20,10,59,16.10
2015,01,20,11,00,11.30
2015,01,20,11,01,9.60
2015,01,20,11,02,8.10
2015,01,20,11,03,9.60
2015,01,20,11,04,9.60
2015,01,20,11,05,9.60
2015,01,20,11,06,11.30
2015,01,20,11,07,8.10
2015,01,20,11,08,8.10
2015,01,20,11,09,3.20
2015,01,20,11,10,6.40
2015,01,20,11,11,6.40
2015,01,20,11,12,16.10
2015,01,20,11,13,8.10
2015,01,20,11,14,8.10
2015,01,20,11,15,14.50
2015,01,20,11,16,12.90
2015,01,20,11,17,14.50
2015,01,20,11,18,11.30
2015,01,20,11,19,8.10
2015,01,20,11,20,11.30
2015,01,20,11,21,16.10
2015,01,20,11,22,11.30
2015,01,20,11,23,8.10
2015,01,20,11,24,8.10
2015,01,20,11,25,14.50
2015,01,20,11,26,14.50
2015,01,20,11,27,16.10
2015,01,20,11,28,9.60
2015,01,20,11,29,16.10
2015,01,20,11,30,11.30
2015,01,20,11,31,14.50
2015,01,20,11,32,16.10
2015,01,20,11,33,17.70
2015,01,20,11,34,11.30
2015,01,20,11,35,14.50
2015,01,20,11,36,11.30
2015,01,20,11,37,12.90
2015,01,20,11,38,11.30
2015,01,20,11,39,11.30
2015,01,20,11,40,11.30
2015,01,20,11,41,11.30
2015,01,20,11,42,16.10
2015,01,20,11,43,16.10
2015,01,20,11,44,11.30
2015,01,20,11,45,11.30
2015,01,20,11,46,17.70
2015,01,20,11,47,17.70
2015,01,20,11,48,16.10
2015,01,20,11,49,14.50
2015,01,20,11,50,14.50
2015,01,20,11,51,14.50
2015,01,20,11,52,11.30
2015,01,20,11,53,14.50
2015,01,20,11,54,11.30
2015,01,20,11,55,16.10
2015,01,20,11,56,16.10
2015,01,20,11,57,16.10
2015,01,20,11,58,16.10
2015,01,20,11,59,9.60
2015,01,20,12,00,11.30
2015,01,20,12,01,12.90
2015,01,20,12,02,11.30
2015,01,20,12,03,14.50
2015,01,20,12,04,16.10
2015,01,20,12,05,14.50
2015,01,20,12,06,17.70
2015,01,20,12,07,14.50
2015,01,20,12,08,17.70
2015,01,20,12,09,16.10
2015,01,20,12,10,16.10
2015,01,20,12,11,17.70
2015,01,20,12,12,16.10
2015,01,20,12,13,16.10
2015,01,20,12,14,16.10
2015,01,20,12,15,14.50
2015,01,20,12,16,12.90
2015,01,20,12,17,16.10
2015,01,20,12,18,14.50
2015,01,20,12,19,11.30
2015,01,20,12,20,8.10
2015,01,20,12,21,11.30
2015,01,20,12,22,9.60
2015,01,20,12,23,11.30
2015,01,20,12,24,14.50
2015,01,20,12,25,8.10
2015,01,20,12,26,16.10
2015,01,20,12,27,16.10
2015,01,20,12,28,16.10
2015,01,20,12,29,11.30
2015,01,20,12,30,11.30
2015,01,20,12,31,11.30
2015,01,20,12,32,9.60
2015,01,20,12,33,14.50
2015,01,20,12,34,19.30
2015,01,20,12,35,9.60
2015,01,20,12,36,11.30
2015,01,20,12,37,11.30
2015,01,20,12,38,17.70
2015,01,20,12,39,16.10
2015,01,20,12,40,12.90
2015,01,20,12,41,11.30
2015,01,20,12,42,9.60
2015,01,20,12,43,14.50
2015,01,20,12,44,16.10
2015,01,20,12,45,16.10
2015,01,20,12,46,19.30
2015,01,20,12,47,17.70
2015,01,20,12,48,16.10
2015,01,20,12,49,17.70
2015,01,20,12,50,16.10
2015,01,20,12,51,14.50
2015,01,20,12,52,11.30
2015,01,20,12,53,9.60
2015,01,20,12,54,6.40
2015,01,20,12,55,16.10
2015,01,20,12,56,19.30
2015,01,20,12,57,14.50
2015,01,20,12,58,14.50
2015,01,20,12,59,17.70
2015,01,20,13,00,9.60
2015,01,20,13,01,9.60
2015,01,20,13,02,14.50
2015,01,20,13,03,11.30
2015,01,20,13,04,11.30
2015,01,20,13,05,11.30
2015,01,20,13,06,14.50
2015,01,20,13,07,12.90
2015,01,20,13,08,16.10
2015,01,20,13,09,16.10
2015,01,20,13,10,14.50
2015,01,20,13,11,11.30
2015,01,20,13,12,9.60
2015,01,20,13,13,8.10
2015,01,20,13,14,9.60
2015,01,20,13,15,16.10
2015,01,20,13,16,19.30
2015,01,20,13,17,11.30
2015,01,20,13,18,9.60
2015,01,20,13,19,14.50
2015,01,20,13,20,9.60
2015,01,20,13,21,9.60
2015,01,20,13,22,9.60
2015,01,20,13,23,9.60
2015,01,20,13,24,11.30
2015,01,20,13,25,11.30
2015,01,20,13,26,16.10
2015,01,20,13,27,11.30
2015,01,20,13,28,14.50
2015,01,20,13,29,14.50
2015,01,20,13,30,8.10
2015,01,20,13,31,11.30
2015,01,20,13,32,11.30
2015,01,20,13,33,16.10
2015,01,20,13,34,16.10
2015,01,20,13,35,14.50
2015,01,20,13,36,14.50
2015,01,20,13,37,17.70
2015,01,20,13,38,16.10
2015,01,20,13,39,22.50
2015,01,20,13,40,20.90
2015,01,20,13,41,17.70
2015,01,20,13,42,11.30
2015,01,20,13,43,11.30
2015,01,20,13,44,9.60
2015,01,20,13,45,20.90
2015,01,20,13,46,17.70
2015,01,20,13,47,16.10
2015,01,20,13,48,16.10
2015,01,20,13,49,17.70
2015,01,20,13,50,19.30
2015,01,20,13,51,17.70
2015,01,20,13,52,11.30
2015,01,20,13,53,11.30
2015,01,20,13,54,11.30
2015,01,20,13,55,11.30
2015,01,20,13,56,11.30
2015,01,20,13,57,16.10
2015,01,20,13,58,19.30
2015,01,20,13,59,16.10
2015,01,20,14,00,14.50
2015,01,20,14,01,16.10
2015,01,20,14,02,17.70
2015,01,20,14,03,16.10
2015,01,20,14,04,17.70
2015,01,20,14,05,19.30
2015,01,20,14,06,11.30
2015,01,20,14,07,12.90
2015,01,20,14,08,12.90
2015,01,20,14,09,6.40
2015,01,20,14,10,4.80
2015,01,20,14,11,11.30
2015,01,20,14,12,14.50
2015,01,20,14,13,4.80
2015,01,20,14,14,11.30
2015,01,20,14,15,11.30
2015,01,20,14,16,14.50
2015,01,20,14,17,9.60
2015,01,20,14,18,9.60
2015,01,20,14,19,9.60
2015,01,20,14,20,8.10
2015,01,20,14,21,16.10
2015,01,20,14,22,16.10
2015,01,20,14,23,16.10
2015,01,20,14,24,16.10
2015,01,20,14,25,14.50
2015,01,20,14,26,14.50
2015,01,20,14,27,11.30
2015,01,20,14,28,11.30
2015,01,20,14,29,9.60
2015,01,20,14,30,9.60
2015,01,20,14,31,9.60
2015,01,20,14,32,4.80
2015,01,20,14,33,9.60
2015,01,20,14,34,8.10
2015,01,20,14,35,4.80
2015,01,20,14,36,4.80
2015,01,20,14,37,19.30
2015,01,20,14,38,16.10
2015,01,20,14,39,14.50
2015,01,20,14,40,16.10
2015,01,20,14,41,17.70
2015,01,20,14,42,22.50
2015,01,20,14,43,16.10
2015,01,20,14,44,22.50
2015,01,20,14,45,17.70
2015,01,20,14,46,19.30
2015,01,20,14,47,17.70
2015,01,20,14,48,11.30
2015,01,20,14,49,9.60
2015,01,20,14,50,11.30
2015,01,20,14,51,11.30
2015,01,20,14,52,16.10
2015,01,20,14,53,16.10
2015,01,20,14,54,20.90
2015,01,20,14,55,19.30
2015,01,20,14,56,14.50
2015,01,20,14,57,19.30
2015,01,20,14,58,16.10
2015,01,20,14,59,17.70
2015,01,20,15,00,12.90
2015,01,20,15,01,11.30
2015,01,20,15,02,11.30
2015,01,20,15,03,9.60
2015,01,20,15,04,9.60
2015,01,20,15,05,11.30
2015,01,20,15,06,9.60
2015,01,20,15,07,9.60
2015,01,20,15,08,9.60
2015,01,20,15,09,8.10
2015,01,20,15,10,11.30
2015,01,20,15,11,17.70
2015,01,20,15,12,19.30
2015,01,20,15,13,16.10
2015,01,20,15,14,14.50
2015,01,20,15,15,9.60
2015,01,20,15,16,16.10
2015,01,20,15,17,19.30
2015,01,20,15,18,19.30
2015,01,20,15,19,16.10
2015,01,20,15,20,16.10
2015,01,20,15,21,9.60
2015,01,20,15,22,16.10
2015,01,20,15,23,14.50
2015,01,20,15,24,14.50
2015,01,20,15,25,16.10
2015,01,20,15,26,14.50
2015,01,20,15,27,17.70
2015,01,20,15,28,9.60
2015,01,20,15,29,11.30
2015,01,20,15,30,17.70
2015,01,20,15,31,17.70
2015,01,20,15,32,16.10
2015,01,20,15,33,11.30
2015,01,20,15,34,9.60
2015,01,20,15,35,11.30
2015,01,20,15,36,8.10
2015,01,20,15,37,9.60
2015,01,20,15,38,8.10
2015,01,20,15,39,8.10
2015,01,20,15,40,14.50
2015,01,20,15,41,11.30
2015,01,20,15,42,9.60
2015,01,20,15,43,17.70
2015,01,20,15,44,17.70
2015,01,20,15,45,14.50
2015,01,20,15,46,11.30
2015,01,20,15,47,9.60
2015,01,20,15,48,8.10
2015,01,20,15,49,8.10
2015,01,20,15,50,9.60
2015,01,20,15,51,16.10
2015,01,20,15,52,16.10
2015,01,20,15,53,12.90
2015,01,20,15,54,9.60
2015,01,20,15,55,9.60
2015,01,20,15,56,9.60
2015,01,20,15,57,8.10
2015,01,20,15,58,12.90
2015,01,20,15,59,14.50
2015,01,20,16,00,14.50
2015,01,20,16,01,14.50
2015,01,20,16,02,9.60
2015,01,20,16,03,11.30
2015,01,20,16,04,11.30
2015,01,20,16,05,8.10
2015,01,20,16,06,14.50
2015,01,20,16,07,11.30
2015,01,20,16,08,11.30
2015,01,20,16,09,9.60
2015,01,20,16,10,14.50
2015,01,20,16,11,11.30
2015,01,20,16,12,16.10
2015,01,20,16,13,16.10
2015,01,20,16,14,14.50
2015,01,20,16,15,11.30
2015,01,20,16,16,12.90
2015,01,20,16,17,11.30
2015,01,20,16,18,14.50
2015,01,20,16,19,9.60
2015,01,20,16,20,11.30
2015,01,20,16,21,12.90
2015,01,20,16,22,14.50
2015,01,20,16,23,12.90
2015,01,20,16,24,14.50
2015,01,20,16,25,9.60
2015,01,20,16,26,8.10
2015,01,20,16,27,11.30
2015,01,20,16,28,9.60
2015,01,20,16,29,9.60
2015,01,20,16,30,9.60
2015,01,20,16,31,9.60
2015,01,20,16,32,9.60
2015,01,20,16,33,9.60
2015,01,20,16,34,9.60
2015,01,20,16,35,8.10
2015,01,20,16,36,6.40
2015,01,20,16,37,8.10
2015,01,20,16,38,8.10
2015,01,20,16,39,9.60
2015,01,20,16,40,9.60
2015,01,20,16,41,11.30
2015,01,20,16,42,11.30
2015,01,20,16,43,14.50
2015,01,20,16,44,8.10
2015,01,20,16,45,8.10
2015,01,20,16,46,6.40
2015,01,20,16,47,8.10
2015,01,20,16,48,9.60
2015,01,20,16,49,9.60
2015,01,20,16,50,9.60
2015,01,20,16,51,12.90
2015,01,20,16,52,9.60
2015,01,20,16,53,9.60
2015,01,20,16,54,9.60
2015,01,20,16,55,9.60
2015,01,20,16,56,9.60
2015,01,20,16,57,8.10
2015,01,20,16,58,9.60
2015,01,20,16,59,9.60
2015,01,20,17,00,6.40
2015,01,20,17,01,8.10
2015,01,20,17,02,9.60
2015,01,20,17,03,9.60
2015,01,20,17,04,9.60
2015,01,20,17,05,11.30
2015,01,20,17,06,9.60
2015,01,20,17,07,11.30
2015,01,20,17,08,9.60
2015,01,20,17,09,9.60
2015,01,20,17,10,8.10
2015,01,20,17,11,9.60
2015,01,20,17,12,9.60
2015,01,20,17,13,11.30
2015,01,20,17,14,12.90
2015,01,20,17,15,11.30
2015,01,20,17,16,11.30
2015,01,20,17,17,9.60
2015,01,20,17,18,9.60
2015,01,20,17,19,14.50
2015,01,20,17,20,12.90
2015,01,20,17,21,9.60
2015,01,20,17,22,9.60
2015,01,20,17,23,11.30
2015,01,20,17,24,12.90
2015,01,20,17,25,14.50
2015,01,20,17,26,11.30
2015,01,20,17,27,11.30
2015,01,20,17,28,11.30
2015,01,20,17,29,12.90
2015,01,20,17,30,12.90
2015,01,20,17,31,11.30
2015,01,20,17,32,11.30
2015,01,20,17,33,9.60
2015,01,20,17,34,16.10
2015,01,20,17,35,16.10
2015,01,20,17,36,11.30
2015,01,20,17,37,11.30
2015,01,20,17,38,12.90
2015,01,20,17,39,8.10
2015,01,20,17,40,9.60
2015,01,20,17,41,9.60
2015,01,20,17,42,9.60
2015,01,20,17,43,16.10
2015,01,20,17,44,14.50
2015,01,20,17,45,16.10
2015,01,20,17,46,17.70
2015,01,20,17,47,11.30
2015,01,20,17,48,11.30
2015,01,20,17,49,11.30
2015,01,20,17,50,9.60
2015,01,20,17,51,9.60
2015,01,20,17,52,9.60
2015,01,20,17,53,9.60
2015,01,20,17,54,9.60
2015,01,20,17,55,12.90
2015,01,20,17,56,11.30
2015,01,20,17,57,14.50
2015,01,20,17,58,9.60
2015,01,20,17,59,9.60
2015,01,20,18,00,8.10
2015,01,20,18,01,4.80
2015,01,20,18,02,9.60
2015,01,20,18,03,9.60
2015,01,20,18,04,11.30
2015,01,20,18,05,9.60
2015,01,20,18,06,14.50
2015,01,20,18,07,11.30
2015,01,20,18,08,11.30
2015,01,20,18,09,9.60
2015,01,20,18,10,9.60
2015,01,20,18,11,11.30
2015,01,20,18,12,9.60
2015,01,20,18,13,11.30
2015,01,20,18,14,9.60
2015,01,20,18,15,9.60
2015,01,20,18,16,11.30
2015,01,20,18,17,9.60
2015,01,20,18,18,11.30
2015,01,20,18,19,9.60
2015,01,20,18,20,9.60
2015,01,20,18,21,9.60
2015,01,20,18,22,8.10
2015,01,20,18,23,8.10
2015,01,20,18,24,8.10
2015,01,20,18,25,11.30
2015,01,20,18,26,11.30
2015,01,20,18,27,11.30
2015,01,20,18,28,9.60
2015,01,20,18,29,9.60
2015,01,20,18,30,11.30
2015,01,20,18,31,9.60
2015,01,20,18,32,9.60
2015,01,20,18,33,9.60
2015,01,20,18,34,11.30
2015,01,20,18,35,9.60
2015,01,20,18,36,9.60
2015,01,20,18,37,8.10
2015,01,20,18,38,8.10
2015,01,20,18,39,9.60
2015,01,20,18,40,11.30
2015,01,20,18,41,8.10
2015,01,20,18,42,9.60
2015,01,20,18,43,11.30
2015,01,20,18,44,11.30
2015,01,20,18,45,8.10
2015,01,20,18,46,8.10
2015,01,20,18,47,8.10
2015,01,20,18,48,9.60
2015,01,20,18,49,11.30
2015,01,20,18,50,9.60
2015,01,20,18,51,9.60
2015,01,20,18,52,9.60
2015,01,20,18,53,12.90
2015,01,20,18,54,8.10
2015,01,20,18,55,11.30
2015,01,20,18,56,9.60
2015,01,20,18,57,9.60
2015,01,20,18,58,9.60
2015,01,20,18,59,9.60
2015,01,20,19,00,8.10
2015,01,20,19,01,8.10
2015,01,20,19,02,9.60
2015,01,20,19,03,8.10
2015,01,20,19,04,8.10
2015,01,20,19,05,9.60
2015,01,20,19,06,9.60
2015,01,20,19,07,11.30
2015,01,20,19,08,12.90
2015,01,20,19,09,12.90
2015,01,20,19,10,11.30
2015,01,20,19,11,9.60
2015,01,20,19,12,8.10
2015,01,20,19,13,9.60
2015,01,20,19,14,9.60
2015,01,20,19,15,9.60
2015,01,20,19,16,14.50
2015,01,20,19,17,9.60
2015,01,20,19,18,11.30
2015,01,20,19,19,9.60
2015,01,20,19,20,14.50
2015,01,20,19,21,11.30
2015,01,20,19,22,11.30
2015,01,20,19,23,11.30
2015,01,20,19,24,11.30
2015,01,20,19,25,9.60
2015,01,20,19,26,11.30
2015,01,20,19,27,8.10
2015,01,20,19,28,9.60
2015,01,20,19,29,9.60
2015,01,20,19,30,9.60
2015,01,20,19,31,9.60
2015,01,20,19,32,9.60
2015,01,20,19,33,9.60
2015,01,20,19,34,9.60
2015,01,20,19,35,11.30
2015,01,20,19,36,8.10
2015,01,20,19,37,9.60
2015,01,20,19,38,9.60
2015,01,20,19,39,11.30
2015,01,20,19,40,9.60
2015,01,20,19,41,9.60
2015,01,20,19,42,9.60
2015,01,20,19,43,9.60
2015,01,20,19,44,9.60
2015,01,20,19,45,8.10
2015,01,20,19,46,8.10
2015,01,20,19,47,6.40
2015,01,20,19,48,6.40
2015,01,20,19,49,4.80
2015,01,20,19,50,6.40
2015,01,20,19,51,6.40
2015,01,20,19,52,6.40
2015,01,20,19,53,6.40
2015,01,20,19,54,6.40
2015,01,20,19,55,6.40
2015,01,20,19,56,6.40
2015,01,20,19,57,6.40
2015,01,20,19,58,4.80
2015,01,20,19,59,6.40
2015,01,20,20,00,6.40
2015,01,20,20,01,6.40
2015,01,20,20,02,8.10
2015,01,20,20,03,6.40
2015,01,20,20,04,6.40
2015,01,20,20,05,6.40
2015,01,20,20,06,6.40
2015,01,20,20,07,8.10
2015,01,20,20,08,8.10
2015,01,20,20,09,8.10
2015,01,20,20,10,6.40
2015,01,20,20,11,6.40
2015,01,20,20,12,6.40
2015,01,20,20,13,6.40
2015,01,20,20,14,6.40
2015,01,20,20,15,6.40
2015,01,20,20,16,4.80
2015,01,20,20,17,6.40
2015,01,20,20,18,6.40
2015,01,20,20,19,6.40
2015,01,20,20,20,6.40
2015,01,20,20,21,6.40
2015,01,20,20,22,6.40
2015,01,20,20,23,6.40
2015,01,20,20,24,6.40
2015,01,20,20,25,8.10
2015,01,20,20,26,8.10
2015,01,20,20,27,8.10
2015,01,20,20,28,8.10
2015,01,20,20,29,8.10
2015,01,20,20,30,8.10
2015,01,20,20,31,8.10
2015,01,20,20,32,6.40
2015,01,20,20,33,8.10
2015,01,20,20,34,6.40
2015,01,20,20,35,8.10
2015,01,20,20,36,8.10
2015,01,20,20,37,9.60
2015,01,20,20,38,9.60
2015,01,20,20,39,9.60
2015,01,20,20,40,9.60
2015,01,20,20,41,9.60
2015,01,20,20,42,9.60
2015,01,20,20,43,11.30
2015,01,20,20,44,12.90
2015,01,20,20,45,14.50
2015,01,20,20,46,11.30
2015,01,20,20,47,12.90
2015,01,20,20,48,11.30
2015,01,20,20,49,12.90
2015,01,20,20,50,14.50
2015,01,20,20,51,16.10